Weather History for Hallock, MN

Change the Weather History Date:

Monday, August 19, 2013

  Actual Average Record
Temperature  
Mean Temperature 76 °F -  
Max Temperature 91 °F 77 °F 95 °F (1983)
Min Temperature 60 °F 52 °F 39 °F (2004)
Cooling Degree Days 10    
Growing Degree Days 26 (Base 50)    
Moisture  
Dew Point 65 °F    
Average Humidity 76    
Maximum Humidity 100    
Minimum Humidity 31    
Precipitation  
Precipitation 0.00 in - - ()
Sea Level Pressure  
Sea Level Pressure 29.80 in    
Wind  
Wind Speed 4 mph (South)    
Max Wind Speed 15 mph    
Max Gust Speed 21 mph    
Visibility 6 miles    
Events Fog    
Averages and records for this station are not official NWS values.
T = Trace of Precipitation, MM = Missing Value Source: NWS Daily Summary

Daily Weather History Graph

Daily Weather History Graph

Search for Another Location

Airport:

Trip Planner

Search our weather history database for the weather conditions in past years. The results will help you decide how hot, cold, wet, or windy it might be!

Date:

Astronomy

Aug. 19, 2013 Rise Set
Actual Time 6:26 AM CDT 8:34 PM CDT
Civil Twilight 5:52 AM CDT 9:08 PM CDT
Nautical Twilight 5:09 AM CDT 9:51 PM CDT
Astronomical Twilight 4:21 AM CDT 10:39 PM CDT
Moon 7:26 PM CDT (8/19) 4:44 AM CDT (8/19)
Length of Visible Light 15h 16m
Length of Day
14h 08m
Waxing Gibbous, 97% of the Moon is Illuminated
Aug 19
Waxing Gibbous
Aug 20
Full
Aug 28
Last Quarter
Sep 5
New
Sep 12
First Quarter

Hourly Weather History & Observations

Time (CDT) Temp. Heat Index Dew Point Humidity Pressure Visibility Wind Dir Wind Speed Gust Speed Precip Events Conditions
12:13 AM 66.2 °F - 66.2 °F 100% 29.84 in 5.0 mi Calm Calm - N/A   Clear
12:33 AM 64.4 °F - 64.4 °F 100% 29.85 in 1.0 mi NNW 4.6 mph - N/A   Mist
12:53 AM 66.2 °F - 64.4 °F 94% 29.85 in 2.5 mi Calm Calm - N/A   Clear
1:13 AM 64.4 °F - 64.4 °F 100% 29.85 in 4.0 mi North 4.6 mph - N/A   Clear
1:34 AM 66.2 °F - 64.4 °F 94% 29.84 in 4.0 mi Calm Calm - N/A   Clear
1:53 AM 64.4 °F - 64.4 °F 100% 29.84 in 1.2 mi Calm Calm - N/A   Mist
2:13 AM 64.4 °F - 64.4 °F 100% 29.84 in 0.2 mi Calm Calm - N/A Fog Fog
2:33 AM 62.6 °F - 62.6 °F 100% 29.83 in 0.5 mi Calm Calm - N/A Fog Fog
2:53 AM 62.6 °F - 62.6 °F 100% 29.83 in 1.2 mi Calm Calm - N/A   Mostly Cloudy
3:13 AM 60.8 °F - 60.8 °F 100% 29.84 in 0.2 mi South 6.9 mph - N/A Fog Fog
3:33 AM 60.8 °F - 60.8 °F 100% 29.84 in 0.2 mi Calm Calm - N/A Fog Fog
3:53 AM 62.6 °F - 62.6 °F 100% 29.84 in 0.2 mi Calm Calm - N/A Fog Fog
4:13 AM 62.6 °F - 62.6 °F 100% 29.84 in 0.2 mi Calm Calm - N/A Fog Fog
4:33 AM 60.8 °F - 60.8 °F 100% 29.84 in 0.2 mi Calm Calm - N/A Fog Fog
4:53 AM 60.8 °F - 60.8 °F 100% 29.83 in 0.2 mi Calm Calm - N/A Fog Fog
5:13 AM 60.8 °F - 60.8 °F 100% 29.84 in 0.2 mi Calm Calm - N/A Fog Fog
5:33 AM 60.8 °F - 60.8 °F 100% 29.84 in 0.2 mi Calm Calm - N/A Fog Fog
5:53 AM 60.8 °F - 60.8 °F 100% 29.84 in 0.2 mi Calm Calm - N/A Fog Fog
6:13 AM 60.8 °F - 60.8 °F 100% 29.84 in 0.2 mi Calm Calm - N/A Fog Fog
6:33 AM 60.8 °F - 60.8 °F 100% 29.85 in 0.2 mi Calm Calm - N/A Fog Fog
6:53 AM 62.6 °F - 62.6 °F 100% 29.85 in 0.2 mi Calm Calm - N/A Fog Fog
7:13 AM 62.6 °F - 62.6 °F 100% 29.84 in 0.2 mi Calm Calm - N/A Fog Fog
7:33 AM 62.6 °F - 62.6 °F 100% 29.85 in 0.2 mi Calm Calm - N/A Fog Fog
7:53 AM 64.4 °F - 64.4 °F 100% 29.85 in 0.2 mi South 4.6 mph - N/A Fog Fog
8:13 AM 66.2 °F - 66.2 °F 100% 29.85 in 0.2 mi Calm Calm - N/A Fog Fog
8:33 AM 66.2 °F - 66.2 °F 100% 29.85 in 0.2 mi SSW 3.5 mph - N/A Fog Fog
8:53 AM 66.2 °F - 66.2 °F 100% 29.85 in 0.2 mi South 3.5 mph - N/A Fog Fog
9:13 AM 68.0 °F - 68.0 °F 100% 29.85 in 0.2 mi Calm Calm - N/A Fog Fog
9:33 AM 68.0 °F - 68.0 °F 100% 29.85 in 0.2 mi South 3.5 mph - N/A Fog Fog
9:53 AM 69.8 °F - 69.8 °F 100% 29.84 in 0.5 mi South 5.8 mph - N/A Fog Fog
10:13 AM 71.6 °F - 69.8 °F 94% 29.84 in 5.0 mi South 5.8 mph - N/A   Mostly Cloudy
10:33 AM 71.6 °F - 71.6 °F 100% 29.84 in 10.0 mi South 5.8 mph - N/A   Scattered Clouds
10:53 AM 75.2 °F - 73.4 °F 94% 29.84 in 10.0 mi SSW 5.8 mph - N/A   Clear
11:13 AM 78.8 °F - 73.4 °F 83% 29.84 in 10.0 mi South 5.8 mph - N/A   Clear
11:33 AM 80.6 °F 85.4 °F 73.4 °F 79% 29.83 in 10.0 mi SSW 6.9 mph - N/A   Clear
11:53 AM 82.4 °F 88.2 °F 73.4 °F 74% 29.83 in 10.0 mi South 10.4 mph - N/A   Clear
12:13 PM 82.4 °F 87.2 °F 71.6 °F 70% 29.82 in 10.0 mi South 9.2 mph - N/A   Clear
12:33 PM 84.2 °F 89.6 °F 71.6 °F 66% 29.82 in 10.0 mi SSW 10.4 mph - N/A   Clear
12:53 PM 86.0 °F 90.4 °F 69.8 °F 58% 29.81 in 10.0 mi SSW 9.2 mph - N/A   Clear
1:13 PM 87.8 °F 93.8 °F 71.6 °F 58% 29.81 in 10.0 mi South 9.2 mph - N/A   Clear
1:33 PM 87.8 °F 92.6 °F 69.8 °F 55% 29.80 in 10.0 mi South 10.4 mph - N/A   Clear
1:53 PM 89.6 °F 91.1 °F 64.4 °F 43% 29.80 in 10.0 mi SSW 8.1 mph - N/A   Clear
2:13 PM 89.6 °F 90.1 °F 62.6 °F 40% 29.79 in 10.0 mi SSW 13.8 mph - N/A   Clear
2:33 PM 89.6 °F 89.5 °F 60.8 °F 38% 29.79 in 10.0 mi South 15.0 mph - N/A   Clear
2:53 PM 91.4 °F 91.4 °F 60.8 °F 36% 29.79 in 10.0 mi SSW 11.5 mph 19.6 mph N/A   Clear
3:13 PM 91.4 °F 90.7 °F 59.0 °F 34% 29.78 in 10.0 mi South 10.4 mph - N/A   Clear
3:33 PM 91.4 °F 89.9 °F 57.2 °F 31% 29.78 in 10.0 mi SW 13.8 mph - N/A   Clear
3:53 PM 91.4 °F 89.9 °F 57.2 °F 31% 29.77 in 10.0 mi SSW 12.7 mph 20.7 mph N/A   Clear
4:13 PM 91.4 °F 91.4 °F 60.8 °F 36% 29.76 in 10.0 mi SSW 10.4 mph - N/A   Clear
4:33 PM 91.4 °F 89.9 °F 57.2 °F 31% 29.76 in 10.0 mi SSW 11.5 mph - N/A   Clear
4:53 PM 91.4 °F 90.7 °F 59.0 °F 34% 29.75 in 10.0 mi SSW 9.2 mph - N/A   Clear
5:13 PM 91.4 °F 90.7 °F 59.0 °F 34% 29.75 in 10.0 mi SW 10.4 mph - N/A   Clear
5:33 PM 91.4 °F 89.9 °F 57.2 °F 31% 29.74 in 10.0 mi SSW 11.5 mph - N/A   Clear
5:53 PM 91.4 °F 89.9 °F 57.2 °F 31% 29.74 in 10.0 mi SSW 9.2 mph - N/A   Clear
6:13 PM 89.6 °F 89.5 °F 60.8 °F 38% 29.74 in 10.0 mi SSW 8.1 mph - N/A   Clear
6:33 PM 89.6 °F 89.5 °F 60.8 °F 38% 29.74 in 10.0 mi SSW 6.9 mph - N/A   Clear
6:53 PM 87.8 °F 90.4 °F 66.2 °F 49% 29.74 in 10.0 mi SSW 5.8 mph - N/A   Clear
7:13 PM 87.8 °F 90.4 °F 66.2 °F 49% 29.73 in 10.0 mi SSW 6.9 mph - N/A   Clear
7:33 PM 84.2 °F 86.6 °F 66.2 °F 55% 29.73 in 10.0 mi South 6.9 mph - N/A   Clear
7:53 PM 80.6 °F 83.2 °F 68.0 °F 65% 29.73 in 10.0 mi South 6.9 mph - N/A   Clear
8:12 PM 78.8 °F - 68.0 °F 69% 29.73 in 10.0 mi South 8.1 mph - N/A   Clear
8:33 PM 77.0 °F - 68.0 °F 74% 29.73 in 10.0 mi South 6.9 mph - N/A   Clear
8:53 PM 75.2 °F - 66.2 °F 73% 29.73 in 10.0 mi South 9.2 mph - N/A   Clear
9:13 PM 73.4 °F - 66.2 °F 78% 29.73 in 10.0 mi South 6.9 mph - N/A   Clear
9:33 PM 73.4 °F - 66.2 °F 78% 29.73 in 10.0 mi South 8.1 mph - N/A   Clear
9:53 PM 75.2 °F - 66.2 °F 73% 29.73 in 10.0 mi South 8.1 mph - N/A   Clear
10:13 PM 75.2 °F - 66.2 °F 73% 29.74 in 10.0 mi South 9.2 mph - N/A   Clear
10:33 PM 75.2 °F - 68.0 °F 78% 29.74 in 10.0 mi South 9.2 mph - N/A   Clear
10:53 PM 75.2 °F - 69.8 °F 83% 29.74 in 10.0 mi South 9.2 mph - N/A   Clear
11:13 PM 73.4 °F - 69.8 °F 88% 29.73 in 10.0 mi South 9.2 mph - N/A   Clear
11:33 PM 73.4 °F - 69.8 °F 88% 29.73 in 10.0 mi South 10.4 mph - N/A   Scattered Clouds
11:53 PM 75.2 °F - 69.8 °F 83% 29.73 in 10.0 mi South 11.5 mph - N/A   Mostly Cloudy